Weather History for Resolute, NU

Change the Weather History Date:

Monday, September 30, 2013

  Actual Average Record
Temperature  
Mean Temperature 15 °F -  
Max Temperature 21 °F 19 °F 32 °F (2001)
Min Temperature 10 °F 12 °F 6 °F (2004)
Degree Days  
Heating Degree Days 50    
Moisture  
Dew Point 14 °F    
Average Humidity 91    
Maximum Humidity 100    
Minimum Humidity 85    
Precipitation  
Precipitation 0.00 in - - ()
Sea Level Pressure  
Sea Level Pressure 29.86 in    
Wind  
Wind Speed 5 mph ()    
Max Wind Speed 16 mph    
Max Gust Speed -    
Visibility 13.8 miles    
Events Fog    
Averages and records for this station are not official NWS values.
T = Trace of Precipitation, MM = Missing Value Source: Averaged Metar Reports

Daily Weather History Graph

Daily Weather History Graph

Search for Another Location

Airport:

Trip Planner

Search our weather history database for the weather conditions in past years. The results will help you decide how hot, cold, wet, or windy it might be!

Date:

Astronomy

Sep. 30, 2013 Rise Set
Actual Time 7:40 AM CDT 6:35 PM CDT
Civil Twilight 6:21 AM CDT 7:54 PM CDT
Nautical Twilight 4:41 AM CDT 9:32 PM CDT
Astronomical Twilight 1:43 AM CDT 12:10 AM CDT
Moon No Moon Rise 6:43 PM CDT (9/30)
Length of Visible Light 13h 32m
Length of Day
10h 54m
Waning Crescent, 19% of the Moon is Illuminated
Sep 30
Waning Crescent
Oct 4
New
Oct 11
First Quarter
Oct 18
Full
Oct 26
Last Quarter

Hourly Weather History & Observations

Time (CDT) Temp. Windchill Dew Point Humidity Pressure Visibility Wind Dir Wind Speed Gust Speed Precip Events Conditions
12:00 AM 15.8 °F 10.2 °F 14.0 °F 93% 29.85 in 15.0 mi NNE 3.5 mph - N/A   Partly Cloudy
1:00 AM 14 °F - 12 °F 87% 29.85 in 15 mi Calm Calm - -   Clear
1:00 AM 14.0 °F - 12.2 °F 93% 29.85 in 15.0 mi Calm Calm - N/A   Partly Cloudy
2:00 AM 14.0 °F - 12.2 °F 93% 29.85 in 15.0 mi Calm Calm - N/A   Partly Cloudy
3:00 AM 14.0 °F - 10.4 °F 86% 29.85 in 15.0 mi Calm Calm - N/A   Partly Cloudy
4:00 AM 14.0 °F - 12.2 °F 93% 29.85 in 15.0 mi NE 2.3 mph - N/A   Partly Cloudy
5:00 AM 14.0 °F - 10.4 °F 86% 29.85 in 15.0 mi Calm Calm - N/A   Partly Cloudy
6:00 AM 14.0 °F - 10.4 °F 86% 29.85 in 15.0 mi Calm Calm - N/A   Partly Cloudy
7:00 AM 12 °F - 10 °F 87% 29.84 in 15 mi NNW 3.5 mph - -   Scattered Clouds
7:00 AM 12.2 °F 6.1 °F 10.4 °F 92% 29.84 in 15.0 mi NNW 3.5 mph - N/A   Partly Cloudy
8:00 AM 14.0 °F - 10.4 °F 86% 29.84 in 15.0 mi Calm Calm - N/A   Partly Cloudy
9:00 AM 14.0 °F 6.5 °F 10.4 °F 86% 29.83 in 15.0 mi NNE 4.6 mph - N/A   Partly Cloudy
10:00 AM 14.0 °F - 10.4 °F 86% 29.83 in 15.0 mi Calm Calm - N/A   Partly Cloudy
11:00 AM 14.0 °F -1.4 °F 12.2 °F 93% 29.83 in 15.0 mi NE 15.0 mph - N/A   Mostly Cloudy
12:00 PM 17.6 °F 5.0 °F 14.0 °F 86% 29.83 in 15.0 mi NE 11.5 mph - N/A   Mostly Cloudy
1:00 PM 18 °F - 15 °F 85% 29.84 in 15 mi NNW 6.9 mph - -   Mostly Cloudy
1:00 PM 17.6 °F 8.2 °F 15.8 °F 93% 29.84 in 15.0 mi NNW 6.9 mph - N/A Fog Mostly Cloudy
2:00 PM 19.4 °F 10.4 °F 17.6 °F 93% 29.85 in 15.0 mi NNW 6.9 mph - N/A Fog Overcast
3:00 PM 21.2 °F 9.5 °F 19.4 °F 93% 29.86 in 15.0 mi NNW 11.5 mph - N/A Fog Overcast
4:00 PM 21.2 °F 10.1 °F 19.4 °F 93% 29.87 in 15.0 mi NW 10.4 mph - N/A   Mostly Cloudy
5:00 PM 21.2 °F 10.1 °F 19.4 °F 93% 29.87 in 15.0 mi NW 10.4 mph - N/A   Mostly Cloudy
6:00 PM 19.4 °F 8.6 °F 17.6 °F 93% 29.88 in 15.0 mi NNW 9.2 mph - N/A   Mostly Cloudy
7:00 PM 20 °F - 18 °F 90% 29.89 in 15 mi NW 11.5 mph - -   Partly Cloudy
7:00 PM 19.4 °F 7.2 °F 17.6 °F 93% 29.89 in 15.0 mi NW 11.5 mph - N/A   Mostly Cloudy
8:00 PM 19.4 °F 8.6 °F 17.6 °F 93% 29.89 in 15.0 mi NW 9.2 mph - N/A   Mostly Cloudy
8:36 PM - - - N/A% - 15.0 mi NNW 8.1 mph - N/A   Mostly Cloudy
9:00 PM 19.4 °F 7.2 °F 17.6 °F 93% 29.90 in 15.0 mi NW 11.5 mph - N/A   Mostly Cloudy
10:00 PM 19.4 °F 7.2 °F 19.4 °F 100% 29.90 in 15.0 mi NNW 11.5 mph - N/A   Mostly Cloudy
10:27 PM - - - N/A% - 4.0 mi NW 13.8 mph - N/A   Overcast
10:38 PM - - - N/A% - 4.0 mi NW 11.5 mph - N/A   Overcast
11:00 PM 21.2 °F 8.3 °F 19.4 °F 93% 29.91 in 10.0 mi NW 13.8 mph - N/A   Overcast
11:45 PM - - - N/A% - 5.0 mi NW 16.1 mph - N/A   Overcast